Temp
-14 -14 -14 -14 -14 -14 -14 -14 -14 -13 -14 -14 -14 -14 -14 -14 -14 -14 -14 -14 -14 -14 -14 -14 -14 -14 -14 -14 -14 -14 -14 -13 -13 -13 -14 -14 -14 -13 -14 -13 -13 -14
-14 -14 -14 -14 -14 -14 -14 -14 -14 -14 -14 -14 -14 -14 -15 -15 -14 -14 -14 -14 -14 -14 -14 -14 -14 -14 -14 -14 -14 -14 -14 -14 -14 -14 -14 -14 -14 -14 -14 -14 -14 -14
-14 -14 -14 -14 -14 -14 -14 -14 -14 -14 -14 -14 -14 -15 -15 -15 -14 -14 -14 -14 -14 -14 -14 -14 -14 -14 -14 -14 -14 -14 -14 -14 -14 -14 -14 -14 -14 -14 -14 -13 -14 -14
-14 -14 -14 -14 -14 -14 -14 -14 -14 -14 -14 -14 -14 -15 -15 -15 -14 -14 -14 -14 -14 -14 -14 -14 -14 -14 -14 -14 -14 -14 -14 -14 -14 -14 -14 -14 -14 -14 -14 -13 -14 -14
-14 -14 -14 -14 -14 -14 -14 -14 -14 -14 -14 -14 -14 -15 -15 -15 -14 -14 -14 -14 -14 -14 -14 -14 -14 -14 -14 -14 -14 -14 -14 -14 -14 -14 -14 -14 -14 -14 -14 -14 -14 -14
-14 -14 -14 -14 -14 -14 -14 -14 -14 -14 -14 -14 -15 -15 -15 -15 -15 -15 -15 -14 -14 -14 -14 -14 -14 -14 -14 -14 -14 -14 -14 -14 -14 -14 -14 -14 -14 -14 -14 -14 -14 -14
-14 -14 -14 -14 -14 -14 -14 -14 -14 -14 -14 -14 -15 -15 -15 -15 -15 -15 -15 -15 -14 -14 -14 -14 -14 -14 -14 -14 -14 -14 -14 -14 -14 -15 -14 -14 -14 -14 -14 -14 -14 -14
-13 -14 -14 -14 -14 -14 -14 -14 -14 -14 -14 -14 -15 -15 -15 -15 -15 -15 -15 -15 -15 -15 -15 -15 -15 -15 -15 -15 -15 -15 -15 -15 -15 -15 -15 -14 -14 -14 -14 -14 -14 -14
-13 -14 -14 -14 -14 -14 -14 -14 -14 -14 -14 -14 -15 -15 -15 -15 -15 -15 -15 -15 -15 -15 -15 -15 -15 -15 -15 -15 -15 -15 -15 -15 -15 -15 -15 -15 -14 -14 -14 -14 -14 -14
-13 -13 -14 -14 -14 -14 -14 -14 -14 -14 -14 -15 -15 -15 -15 -15 -15 -15 -15 -15 -15 -15 -15 -15 -15 -15 -15 -15 -15 -15 -15 -15 -15 -15 -15 -15 -15 -15 -14 -14 -14 -14
-13 -13 -14 -14 -14 -14 -14 -14 -14 -14 -14 -15 -15 -15 -15 -15 -15 -15 -15 -15 -15 -15 -15 -15 -15 -15 -15 -15 -15 -15 -15 -15 -15 -15 -15 -15 -15 -15 -15 -15 -14 -14
-13 -13 -14 -14 -14 -14 -14 -14 -14 -14 -14 -15 -15 -15 -15 -15 -15 -15 -15 -15 -15 -15 -15 -15 -15 -15 -15 -15 -15 -15 -15 -15 -15 -15 -15 -15 -15 -15 -15 -15 -15 -15
-13 -13 -14 -14 -14 -14 -14 -14 -14 -14 -14 -15 -15 -15 -15 -15 -15 -15 -15 -15 -15 -15 -15 -15 -15 -15 -15 -15 -15 -15 -15 -15 -15 -15 -15 -15 -15 -15 -15 -15 -15 -15
-14 -14 -14 -14 -14 -14 -14 -14 -14 -14 -15 -15 -15 -15 -15 -15 -15 -15 -15 -15 -15 -15 -15 -15 -15 -15 -15 -15 -15 -15 -15 -15 -15 -15 -15 -15 -15 -15 -15 -15 -15 -15
-14 -14 -14 -14 -14 -14 -14 -14 -14 -14 -15 -15 -15 -15 -15 -15 -15 -15 -15 -15 -15 -15 -15 -15 -15 -15 -15 -15 -15 -15 -15 -15 -15 -15 -15 -15 -15 -15 -15 -15 -15 -15
-14 -14 -14 -14 -14 -14 -14 -14 -14 -14 -15 -15 -15 -15 -15 -15 -15 -15 -15 -15 -15 -15 -15 -15 -15 -15 -15 -15 -15 -15 -15 -15 -15 -15 -15 -15 -15 -15 -15 -15 -15 -15
-14 -14 -14 -14 -14 -14 -14 -14 -14 -14 -15 -15 -15 -15 -15 -15 -15 -15 -15 -15 -15 -15 -15 -15 -15 -15 -15 -15 -15 -15 -15 -15 -15 -15 -15 -15 -15 -15 -15 -15 -15 -15
-14 -14 -14 -14 -14 -14 -14 -14 -14 -14 -15 -15 -15 -15 -15 -15 -15 -16 -16 -16 -16 -15 -15 -15 -15 -15 -15 -15 -15 -15 -15 -15 -15 -15 -15 -15 -15 -15 -15 -15 -15 -15
-14 -14 -14 -14 -14 -14 -14 -14 -14 -15 -15 -15 -15 -15 -15 -16 -16 -16 -16 -16 -16 -16 -16 -15 -15 -15 -15 -15 -15 -15 -15 -15 -15 -15 -15 -15 -15 -16 -15 -15 -15 -15
-15 -14 -15 -15 -15 -14 -14 -15 -15 -15 -15 -15 -15 -15 -16 -16 -16 -16 -16 -16 -16 -16 -16 -15 -15 -15 -15 -15 -15 -15 -15 -15 -15 -15 -15 -15 -16 -16 -15 -15 -15 -16
-15 -15 -15 -15 -15 -15 -15 -15 -15 -15 -15 -15 -15 -16 -16 -16 -16 -16 -16 -16 -16 -16 -16 -16 -15 -15 -16 -16 -16 -15 -15 -15 -15 -15 -15 -16 -16 -16 -16 -15 -15 -15
-15 -15 -15 -15 -15 -15 -15 -15 -15 -15 -15 -15 -16 -16 -16 -16 -16 -16 -16 -16 -16 -16 -16 -16 -16 -16 -16 -16 -16 -16 -16 -16 -15 -15 -15 -16 -16 -16 -16 -16 -16 -15
-15 -15 -15 -15 -15 -15 -15 -15 -15 -15 -15 -15 -15 -15 -16 -16 -16 -16 -16 -16 -16 -16 -16 -16 -16 -16 -16 -16 -16 -16 -16 -16 -15 -15 -15 -16 -16 -16 -16 -16 -16 -16
-15 -15 -15 -15 -15 -15 -15 -15 -15 -15 -15 -15 -15 -15 -15 -15 -16 -16 -16 -16 -16 -16 -16 -16 -16 -16 -16 -16 -16 -16 -16 -16 -16 -16 -16 -16 -16 -16 -16 -16 -16 -16
-15 -15 -15 -15 -15 -15 -16 -15 -15 -15 -15 -15 -15 -15 -15 -16 -16 -16 -16 -16 -16 -16 -16 -16 -16 -16 -16 -16 -16 -16 -16 -16 -16 -16 -16 -16 -16 -16 -16 -16 -16 -16
-15 -15 -15 -15 -16 -16 -16 -16 -15 -15 -15 -15 -15 -15 -16 -16 -16 -16 -16 -16 -16 -16 -16 -16 -16 -16 -16 -16 -16 -16 -16 -16 -16 -16 -16 -16 -16 -16 -16 -16 -16 -16
Height
5766 5767 5768 5770 5772 5773 5775 5777 5779 5779 5780 5782 5784 5786 5788 5789 5790 5791 5791 5792 5792 5793 5793 5794 5794 5795 5795 5796 5797 5797 5797 5798 5799 5799 5800 5800 5799 5799 5799 5799 5799 5799
5763 5765 5767 5768 5770 5771 5773 5775 5777 5777 5779 5780 5782 5783 5785 5786 5787 5788 5789 5789 5790 5790 5791 5791 5792 5793 5793 5794 5794 5795 5795 5796 5797 5798 5798 5798 5798 5798 5798 5798 5798 5798
5760 5762 5764 5765 5767 5769 5771 5773 5774 5775 5776 5777 5779 5780 5782 5783 5785 5785 5786 5787 5787 5788 5788 5789 5789 5790 5791 5791 5792 5792 5793 5794 5795 5796 5796 5797 5797 5797 5797 5796 5796 5797
5757 5758 5760 5762 5764 5767 5769 5770 5772 5773 5773 5775 5776 5778 5779 5781 5782 5783 5783 5784 5784 5785 5786 5787 5787 5788 5789 5789 5790 5790 5791 5792 5793 5794 5795 5795 5796 5796 5796 5795 5795 5795
5756 5756 5758 5760 5762 5765 5766 5768 5770 5771 5772 5773 5774 5776 5777 5778 5780 5780 5781 5781 5782 5783 5783 5784 5785 5786 5786 5787 5788 5788 5789 5790 5791 5792 5793 5794 5794 5794 5794 5794 5794 5794
5755 5755 5756 5758 5760 5763 5765 5767 5768 5769 5770 5771 5772 5774 5775 5776 5777 5778 5778 5779 5780 5780 5781 5782 5782 5783 5784 5785 5786 5786 5787 5788 5789 5790 5791 5792 5792 5792 5793 5793 5793 5793
5753 5753 5755 5756 5758 5760 5762 5764 5766 5767 5768 5769 5770 5772 5773 5774 5775 5776 5776 5777 5777 5778 5779 5779 5780 5781 5781 5782 5783 5784 5785 5786 5787 5788 5789 5789 5790 5791 5791 5791 5791 5791
5751 5751 5753 5754 5755 5758 5760 5762 5763 5765 5766 5767 5768 5770 5771 5772 5773 5773 5774 5774 5774 5775 5776 5777 5778 5778 5779 5780 5781 5782 5783 5784 5785 5786 5787 5787 5788 5789 5789 5789 5790 5790
5748 5749 5750 5752 5754 5755 5757 5759 5760 5762 5763 5764 5766 5768 5769 5769 5770 5770 5771 5772 5772 5773 5773 5774 5775 5776 5777 5778 5779 5780 5781 5782 5783 5784 5785 5785 5786 5787 5787 5787 5788 5788
5745 5747 5748 5749 5751 5753 5755 5756 5758 5759 5761 5762 5764 5765 5766 5766 5767 5767 5768 5769 5770 5770 5771 5772 5773 5774 5775 5776 5777 5778 5779 5780 5781 5782 5783 5783 5784 5785 5786 5786 5786 5786
5742 5744 5745 5747 5748 5750 5752 5753 5755 5756 5758 5760 5761 5763 5764 5764 5764 5765 5766 5766 5767 5768 5769 5770 5771 5772 5773 5774 5775 5776 5777 5778 5779 5780 5780 5781 5782 5783 5784 5784 5784 5784
5739 5741 5742 5744 5746 5747 5749 5750 5751 5753 5755 5757 5758 5760 5760 5760 5761 5762 5763 5764 5765 5766 5767 5768 5769 5770 5771 5772 5773 5774 5775 5776 5777 5777 5778 5779 5779 5780 5781 5782 5782 5782
5737 5738 5739 5741 5743 5744 5745 5747 5748 5750 5752 5753 5755 5756 5757 5757 5758 5759 5760 5761 5762 5763 5765 5766 5767 5768 5768 5769 5770 5771 5772 5773 5774 5775 5776 5776 5777 5777 5778 5779 5780 5780
5735 5735 5736 5738 5739 5741 5742 5743 5745 5746 5748 5750 5752 5753 5754 5754 5755 5756 5757 5758 5760 5762 5763 5764 5764 5765 5766 5767 5768 5769 5770 5771 5772 5772 5773 5773 5774 5774 5775 5776 5778 5778
5731 5732 5734 5735 5736 5737 5738 5740 5741 5743 5745 5747 5749 5750 5750 5751 5752 5753 5754 5756 5758 5760 5761 5761 5762 5763 5764 5765 5766 5767 5767 5768 5769 5770 5771 5771 5772 5772 5772 5774 5775 5775
5727 5729 5731 5732 5733 5734 5735 5735 5737 5739 5742 5744 5745 5746 5748 5749 5749 5750 5752 5754 5757 5758 5758 5759 5760 5761 5762 5763 5764 5765 5766 5766 5767 5768 5768 5768 5769 5769 5769 5771 5772 5772
5724 5726 5728 5729 5730 5731 5732 5732 5734 5736 5739 5740 5742 5743 5745 5746 5747 5749 5751 5753 5754 5754 5755 5757 5758 5759 5760 5761 5762 5763 5763 5764 5764 5765 5766 5766 5766 5766 5766 5767 5768 5768
5722 5723 5724 5726 5727 5728 5729 5730 5732 5733 5735 5737 5739 5741 5742 5744 5746 5748 5749 5749 5750 5751 5753 5754 5755 5756 5757 5758 5759 5760 5760 5761 5762 5762 5763 5763 5763 5763 5763 5764 5765 5765
5720 5721 5722 5723 5725 5726 5727 5729 5730 5732 5733 5735 5737 5738 5740 5742 5744 5745 5746 5747 5748 5749 5750 5751 5752 5753 5754 5755 5756 5756 5757 5758 5758 5759 5759 5760 5760 5760 5761 5761 5762 5762
5717 5718 5719 5721 5722 5724 5726 5727 5729 5730 5731 5732 5734 5736 5738 5740 5741 5742 5743 5744 5745 5745 5746 5747 5748 5749 5750 5751 5752 5753 5754 5755 5755 5755 5756 5757 5757 5757 5758 5758 5759 5759
5714 5715 5716 5718 5719 5721 5724 5725 5726 5727 5729 5730 5732 5733 5735 5736 5737 5739 5740 5741 5742 5742 5743 5744 5745 5746 5747 5748 5749 5749 5750 5751 5752 5752 5752 5753 5754 5754 5755 5755 5756 5756
5711 5712 5714 5715 5717 5719 5721 5723 5724 5725 5726 5728 5729 5731 5731 5732 5734 5735 5736 5738 5738 5739 5739 5740 5741 5742 5743 5744 5745 5746 5746 5747 5748 5748 5749 5750 5751 5751 5751 5752 5753 5753
5708 5709 5710 5712 5714 5716 5718 5720 5722 5722 5723 5725 5727 5727 5728 5729 5731 5732 5733 5734 5735 5735 5736 5737 5737 5738 5739 5740 5741 5742 5742 5743 5744 5745 5745 5746 5747 5747 5748 5749 5749 5749
5705 5706 5707 5709 5711 5713 5715 5717 5719 5719 5720 5722 5723 5724 5725 5726 5727 5729 5729 5730 5731 5732 5732 5733 5734 5735 5735 5736 5737 5738 5739 5740 5741 5741 5742 5743 5743 5743 5744 5745 5745 5745
5702 5704 5705 5707 5708 5710 5712 5714 5716 5716 5718 5719 5719 5720 5721 5722 5723 5725 5725 5726 5727 5728 5729 5730 5730 5731 5732 5733 5734 5734 5735 5736 5737 5738 5738 5738 5738 5739 5740 5741 5741 5741
5700 5701 5703 5704 5705 5707 5709 5711 5712 5713 5714 5714 5715 5716 5718 5719 5719 5720 5721 5722 5724 5724 5725 5726 5727 5728 5729 5729 5730 5731 5732 5733 5733 5734 5734 5734 5734 5735 5736 5737 5737 5738
Wind_Speed
18 19 20 21 21 22 23 22 19 17 17 17 18 17 18 19 19 20 20 20 20 19 18 17 16 15 15 14 14 14 14 13 12 11 11 12 12 13 13 14 14 14
18 18 20 21 20 21 23 21 17 16 18 19 19 18 18 19 19 20 21 21 21 21 20 19 18 16 15 15 16 16 15 14 13 12 12 12 12 12 13 13 13 13
19 19 19 20 20 21 21 16 14 15 15 17 17 16 17 17 18 19 20 22 22 22 22 20 19 18 17 17 17 16 15 14 13 12 12 11 12 12 12 12 12 12
18 20 20 20 20 22 20 15 14 14 14 14 15 15 16 17 17 19 20 22 22 23 22 21 20 19 18 18 17 17 16 14 13 12 12 11 12 12 12 12 12 12
17 20 21 21 21 23 23 20 17 15 14 13 15 16 17 17 18 19 20 21 22 22 22 22 21 20 19 18 17 17 16 14 13 12 12 11 12 12 12 11 12 12
19 20 21 22 22 23 25 22 19 17 15 14 16 17 18 18 19 20 20 21 22 23 23 23 22 21 19 18 17 17 16 14 13 12 12 12 12 12 12 11 10 11
18 18 20 22 23 23 22 22 20 18 16 15 17 18 18 19 19 20 20 21 22 23 23 23 22 21 20 19 18 18 17 15 14 13 12 13 13 13 12 11 10 9
18 18 18 20 23 23 22 22 21 19 17 17 18 18 18 19 20 20 21 22 23 23 23 22 22 21 20 20 20 18 17 15 14 14 14 14 14 14 14 13 11 10
18 18 19 19 22 25 24 23 24 22 19 19 19 18 17 19 20 21 21 22 22 23 22 22 22 21 21 21 20 19 17 16 15 15 15 15 15 15 15 15 14 13
21 19 20 20 22 24 24 24 25 24 22 20 19 18 19 21 21 22 22 22 22 22 22 21 20 20 20 21 20 19 18 17 16 16 16 16 16 17 17 17 17 16
23 20 21 21 21 23 24 24 25 25 24 22 20 20 21 23 23 22 22 21 21 21 21 20 19 19 19 19 19 19 18 18 18 18 18 18 18 18 18 18 19 19
23 21 22 22 21 22 24 25 26 26 25 24 22 21 23 24 23 22 21 21 21 21 21 21 20 20 20 20 20 20 20 19 19 19 19 19 20 20 20 20 20 20
25 24 24 23 21 22 25 26 27 27 27 26 23 22 24 25 24 23 22 21 22 22 21 21 21 21 22 22 22 22 21 21 20 20 20 20 20 21 21 21 20 21
27 27 27 24 22 23 25 27 28 29 30 27 24 24 26 25 25 25 24 23 22 21 20 20 21 21 21 21 21 21 21 19 19 19 19 20 20 21 22 21 21 21
29 29 28 25 23 23 25 28 30 31 30 27 26 27 28 26 25 26 25 23 21 19 20 20 20 20 20 20 20 19 18 18 17 18 19 20 21 22 23 23 22 23
30 28 27 26 24 23 25 27 29 30 28 28 29 29 27 25 25 25 24 22 20 20 22 21 20 19 19 19 19 19 18 18 18 19 19 21 22 23 25 25 24 24
29 28 27 26 25 25 26 25 26 27 27 27 27 25 24 24 24 22 21 21 22 23 23 22 21 21 20 20 20 20 21 21 21 21 21 21 22 23 24 25 25 25
29 29 28 27 25 26 27 26 25 25 24 23 22 22 23 23 22 21 21 23 24 24 24 23 23 23 23 23 23 24 24 24 24 24 24 23 22 22 23 23 24 25
27 29 29 27 24 24 26 26 24 23 22 21 21 21 22 22 21 22 23 23 24 24 25 25 24 24 24 25 26 26 26 25 26 26 26 24 22 22 21 21 22 24
25 27 27 25 24 24 24 23 22 22 22 21 21 21 22 22 23 23 23 23 24 24 25 25 25 25 25 25 26 26 26 26 27 27 27 25 23 22 21 21 22 23
25 25 24 24 25 25 23 22 24 24 23 23 22 21 23 24 25 25 25 24 23 23 24 25 25 25 25 26 27 28 29 29 27 26 26 25 24 24 23 23 23 23
25 25 25 24 24 25 25 25 25 26 25 23 23 23 24 26 27 28 27 26 25 25 26 27 27 28 28 27 27 28 29 28 26 24 23 24 25 26 26 25 24 24
25 25 26 26 24 25 26 26 26 27 26 23 24 25 26 26 27 28 29 28 28 29 29 29 29 28 27 26 26 26 26 25 24 23 22 23 25 26 27 27 26 26
26 25 25 25 25 26 27 26 27 28 27 25 27 28 27 27 28 29 30 31 31 30 29 28 26 25 25 24 24 25 25 24 23 22 22 23 25 26 26 27 27 28
26 26 26 27 27 28 28 27 28 29 29 30 31 30 28 28 28 29 30 30 29 27 26 25 24 23 23 24 24 24 25 24 24 23 24 25 26 26 26 27 28 29
27 27 27 29 30 30 30 30 30 31 32 33 33 31 29 27 27 28 28 27 25 24 23 23 23 23 24 24 24 25 24 25 25 25 26 27 27 27 27 27 28 30
Wind_Direction
234 231 234 235 239 241 232 226 229 236 243 250 251 249 247 245 246 247 248 247 247 247 249 250 251 252 253 253 257 262 264 263 262 263 266 270 275 278 276 272 270 267
253 243 238 239 244 238 222 218 231 245 247 246 246 247 247 247 248 249 249 248 247 247 247 247 248 249 250 251 255 259 261 259 257 258 261 265 270 270 269 267 264 259
266 255 248 247 247 230 214 221 248 257 252 245 243 247 249 249 249 248 246 245 244 244 244 245 247 248 247 248 252 255 254 252 251 254 258 263 266 266 264 263 258 252
270 258 252 250 246 229 224 246 264 262 259 249 243 246 248 248 248 246 244 242 241 241 242 244 246 247 247 247 250 250 247 245 247 252 256 259 261 263 261 258 254 251
279 262 250 247 244 234 237 253 260 259 261 252 245 246 245 245 245 243 241 239 239 240 241 243 244 244 245 246 247 246 243 241 242 248 255 257 257 259 259 256 254 252
284 269 254 247 242 236 240 248 252 257 257 248 245 246 245 246 244 240 238 237 238 239 239 241 243 243 243 244 243 242 240 239 240 244 250 252 251 254 256 256 254 252
280 274 259 246 235 236 241 243 246 251 252 247 243 244 246 246 244 239 236 235 237 239 240 241 242 243 243 242 240 237 236 238 240 243 245 246 247 249 251 252 251 249
270 273 266 250 238 242 248 246 243 243 246 245 239 238 241 242 242 239 235 236 237 239 241 241 241 241 241 240 237 233 233 236 240 243 244 245 245 245 247 249 249 248
261 267 265 259 251 251 253 250 242 238 244 244 234 232 238 240 240 238 237 237 238 240 241 241 241 240 239 237 233 231 231 233 238 242 244 245 244 243 243 245 246 246
257 261 261 261 257 253 254 252 241 236 243 241 227 227 239 243 241 238 237 237 236 238 241 241 241 239 237 235 234 233 233 234 236 239 242 244 243 242 241 242 244 245
255 259 257 258 259 255 253 251 242 236 240 236 224 227 239 243 242 238 237 236 234 236 239 240 239 237 237 237 237 238 238 238 239 240 241 243 242 242 241 242 245 247
253 257 255 254 257 254 252 252 244 237 237 232 223 228 237 239 239 238 236 235 232 232 236 238 239 239 239 240 241 242 242 242 243 243 244 244 244 245 244 244 246 250
250 253 253 253 255 255 254 253 247 237 233 230 224 227 235 238 237 236 236 233 229 230 235 239 241 241 241 242 243 244 244 244 245 246 247 247 248 249 249 248 249 252
247 250 251 252 254 256 255 255 250 238 230 228 226 227 233 236 235 236 236 232 228 230 235 238 239 240 241 241 242 243 243 244 244 245 247 248 250 252 253 253 252 253
242 246 249 252 256 258 259 257 248 233 225 226 226 227 233 237 237 237 237 233 229 231 235 237 239 240 241 241 240 240 241 243 245 248 250 253 254 255 256 256 256 255
240 242 245 252 258 258 260 254 238 224 222 223 224 228 236 239 238 238 237 235 233 234 235 237 240 241 241 241 241 242 244 246 249 252 256 258 258 258 259 258 258 258
238 241 245 252 255 256 253 242 226 217 217 220 225 233 239 239 238 238 236 234 234 235 237 240 241 241 241 242 244 247 250 252 253 255 258 260 261 260 260 260 259 259
233 240 246 248 252 254 243 227 216 212 215 224 233 238 239 238 238 235 233 235 237 239 243 245 244 243 242 243 245 249 253 255 257 258 259 261 261 261 261 262 262 263
232 241 245 243 246 244 229 218 215 215 222 234 239 239 238 237 236 235 236 238 241 244 245 246 245 244 243 243 246 249 252 255 257 259 259 259 260 260 261 262 263 265
234 240 240 236 235 231 222 220 222 224 231 237 238 239 238 235 235 236 237 240 243 245 246 246 245 244 243 244 245 246 250 254 257 258 256 255 255 257 257 258 260 261
236 236 233 229 227 224 222 222 225 233 239 238 235 235 234 235 236 237 240 244 246 247 247 248 247 246 246 246 246 248 253 256 257 255 251 248 250 253 253 254 257 259
235 232 229 226 223 222 223 222 227 237 241 238 234 234 236 238 239 240 243 246 247 249 252 252 252 251 250 249 249 251 253 252 251 248 245 244 247 251 253 255 257 259
231 229 226 223 221 220 222 225 229 236 241 240 238 240 243 245 244 244 246 247 248 251 253 253 253 251 249 248 248 249 249 247 246 246 246 247 250 253 255 257 259 261
227 227 224 223 223 222 223 227 231 236 243 245 243 243 244 245 245 246 246 247 249 250 250 250 250 249 249 248 247 248 249 248 248 249 251 253 254 256 259 260 262 265
223 223 222 223 224 223 224 229 234 239 244 244 241 240 239 241 244 245 245 246 247 248 249 248 247 248 250 251 250 249 249 250 250 251 254 256 257 259 260 262 265 268
222 223 225 225 226 227 227 230 236 240 239 235 234 239 244 246 244 243 243 244 244 246 246 247 249 251 252 253 252 251 251 251 253 254 257 259 259 260 260 261 265 269